Voltar ao catálogo

SL-16 DEB

LostLEO
NORAD 39901·DEBRIS·🇷🇺 Russia

Lançado Mar 26, 1993 de Baikonur Cosmodrome

Loading…

Próximas Passagens (próximas 24 horas)

TLE

ObsoletoSource: Space-Track

Época: Feb 2, 2023, 12:01 UTC

1 39901U 93016CB  23033.50095179  .00005783  00000-0  26328-2 0  9994
2 39901  70.9465 220.6880 0135499  34.7351 326.2526 14.17302667867751

Acompanhe SL-16 DEB em tempo real com AllMySat

Download on the App Store